TimeMDT,TemperatureF,Dew PointF,Humidity,Sea Level PressureIn,VisibilityMPH,Wind Direction,Wind SpeedMPH,Gust SpeedMPH,PrecipitationIn,Events,Conditions,WindDirDegrees,DateUTC
12:56 AM,30.9,25.0,79,29.86,-9999.0,ESE,4.6,-,N/A,,Unknown,110,2013-04-12 06:56:00
1:56 AM,28.9,25.0,85,29.86,-9999.0,SW,9.2,-,N/A,,Unknown,220,2013-04-12 07:56:00
2:56 AM,28.0,25.0,88,29.86,-9999.0,Calm,Calm,-,N/A,,Unknown,0,2013-04-12 08:56:00
3:56 AM,26.1,21.9,84,29.86,-9999.0,WNW,6.9,-,N/A,,Unknown,290,2013-04-12 09:56:00
4:56 AM,26.1,23.0,88,29.86,-9999.0,WNW,11.5,-,N/A,,Unknown,300,2013-04-12 10:56:00
5:56 AM,28.9,26.1,89,29.86,-9999.0,NW,12.7,-,N/A,,Unknown,320,2013-04-12 11:56:00
6:56 AM,28.0,26.1,92,29.88,-9999.0,WNW,8.1,-,N/A,,Unknown,290,2013-04-12 12:56:00
7:56 AM,32.0,30.0,92,29.89,-9999.0,NW,11.5,-,N/A,,Unknown,310,2013-04-12 13:56:00
8:56 AM,36.0,30.0,79,29.88,-9999.0,WNW,15.0,-,N/A,,Unknown,300,2013-04-12 14:56:00
9:56 AM,37.9,28.9,70,29.88,-9999.0,NNW,12.7,-,N/A,,Unknown,330,2013-04-12 15:56:00
10:56 AM,35.1,30.0,82,29.91,-9999.0,NNW,15.0,-,N/A,,Unknown,330,2013-04-12 16:56:00
11:56 AM,37.0,30.0,76,29.91,-9999.0,NNW,16.1,-,N/A,,Unknown,340,2013-04-12 17:56:00
12:56 PM,37.9,30.0,73,29.90,-9999.0,NNW,16.1,-,N/A,,Unknown,340,2013-04-12 18:56:00
1:56 PM,39.9,28.9,65,29.91,-9999.0,NNW,20.7,24.2,N/A,,Unknown,330,2013-04-12 19:56:00
2:56 PM,41.0,28.9,62,29.92,-9999.0,NNW,17.3,-,N/A,,Unknown,330,2013-04-12 20:56:00
3:56 PM,41.0,28.9,62,29.93,-9999.0,NW,23.0,-,N/A,,Unknown,310,2013-04-12 21:56:00
4:56 PM,41.0,28.9,62,29.93,-9999.0,NW,21.9,-,N/A,,Unknown,320,2013-04-12 22:56:00
5:56 PM,37.9,28.9,70,29.94,-9999.0,NW,21.9,27.6,N/A,,Unknown,320,2013-04-12 23:56:00
6:56 PM,37.9,28.9,70,29.95,-9999.0,NW,13.8,-,N/A,,Unknown,320,2013-04-13 00:56:00
7:56 PM,36.0,28.0,73,29.94,-9999.0,NW,8.1,-,N/A,,Unknown,320,2013-04-13 01:56:00
8:56 PM,36.0,28.9,76,29.93,-9999.0,NW,4.6,-,N/A,,Unknown,320,2013-04-13 02:56:00
9:56 PM,35.1,28.9,78,29.92,-9999.0,NE,5.8,-,N/A,,Unknown,50,2013-04-13 03:56:00
10:56 PM,34.0,28.9,82,29.91,-9999.0,Calm,Calm,-,N/A,,Unknown,0,2013-04-13 04:56:00
11:56 PM,32.0,28.0,85,29.89,-9999.0,SSE,4.6,-,N/A,,Unknown,150,2013-04-13 05:56:00